Weather History for Sigonella, Italy

Change the Weather History Date:

Tuesday, November 13, 2012

  Actual Average Record
Temperature  
Mean Temperature 64 °F -  
Max Temperature 72 °F 66 °F 77 °F (2002)
Min Temperature 56 °F 47 °F 44 °F (2010)
Degree Days  
Heating Degree Days 1    
Growing Degree Days 14 (Base 50)    
Moisture  
Dew Point 61 °F    
Average Humidity 92    
Maximum Humidity 100    
Minimum Humidity 59    
Precipitation  
Precipitation 0.00 in 0.07 in - ()
Sea Level Pressure  
Sea Level Pressure 30.17 in    
Wind  
Wind Speed 4 mph ()    
Max Wind Speed 14 mph    
Max Gust Speed -    
Visibility 4.1 miles    
Events Fog    
Averages and records for this station are not official NWS values.
T = Trace of Precipitation, MM = Missing Value Source: Averaged Metar Reports

Daily Weather History Graph

Daily Weather History Graph

Search for Another Location

Airport:

Trip Planner

Search our weather history database for the weather conditions in past years. The results will help you decide how hot, cold, wet, or windy it might be!

Date:

Astronomy

Nov. 13, 2012 Rise Set
Actual Time 6:37 AM CET 4:51 PM CET
Civil Twilight 6:10 AM CET 5:18 PM CET
Nautical Twilight 5:38 AM CET 5:50 PM CET
Astronomical Twilight 5:07 AM CET 6:21 PM CET
Moon 5:54 AM CET (11/13) 4:29 PM CET (11/13)
Length of Visible Light 11h 08m
Length of Day
10h 13m
Waning Crescent, 0% of the Moon is Illuminated
Nov 13
Waning Crescent
Nov 13
New
Nov 20
First Quarter
Nov 28
Full
Dec 6
Last Quarter

Hourly Weather History & Observations

Time (CET) Temp. Dew Point Humidity Pressure Visibility Wind Dir Wind Speed Gust Speed Precip Events Conditions
12:55 AM 57.2 °F 55.4 °F 94% 30.18 in 1.9 mi WNW 3.5 mph - N/A   Mist
1:00 AM 56 °F 56 °F 100% 30.19 in 2 mi WNW 3.5 mph - -   Mist
1:55 AM 55.4 °F 55.4 °F 100% 30.18 in 1.9 mi NW 4.6 mph - N/A   Partly Cloudy
2:55 AM 57.2 °F 57.2 °F 100% 30.15 in 1.6 mi Calm Calm - N/A   Scattered Clouds
3:55 AM 57.2 °F 57.2 °F 100% 30.15 in 1.6 mi Calm Calm - N/A   Scattered Clouds
4:00 AM 57 °F 57 °F 99% 30.17 in 2 mi Calm Calm - -   Mist
4:55 AM 57.2 °F 57.2 °F 100% 30.15 in 0.7 mi Calm Calm - N/A   Scattered Clouds
5:55 AM 57.2 °F 57.2 °F 100% 30.15 in 0.5 mi West 2.3 mph - N/A Fog Fog
6:55 AM 57.2 °F 57.2 °F 100% 30.18 in 0.7 mi Calm Calm - N/A   Mostly Cloudy
7:00 AM 56 °F 56 °F 100% 30.20 in 1 mi Calm Calm - - Fog Light Fog
7:55 AM 60.8 °F 60.8 °F 100% 30.18 in 0.9 mi Calm Calm - N/A   Scattered Clouds
8:55 AM 62.6 °F 62.6 °F 100% 30.21 in 2.5 mi East 3.5 mph - N/A   Mostly Cloudy
9:55 AM 68.0 °F 66.2 °F 94% 30.21 in 4.3 mi East 12.7 mph - N/A   Mostly Cloudy
10:00 AM 67 °F 67 °F 100% 30.22 in 4 mi East 12.7 mph - -   Mist
10:55 AM 69.8 °F 62.6 °F 78% 30.21 in 6.2 mi ESE 2.3 mph - N/A   Scattered Clouds
12:55 PM 69.8 °F 59.0 °F 68% 30.15 in 5.0 mi ESE 11.5 mph - N/A   Scattered Clouds
1:00 PM 71 °F 60 °F 59% 30.18 in 5 mi ESE 11.5 mph - -   Mist
1:55 PM 71.6 °F 60.8 °F 69% 30.15 in 6.2 mi ESE 13.8 mph - N/A   Scattered Clouds
2:55 PM 69.8 °F 60.8 °F 73% 30.15 in 6.2 mi ESE 13.8 mph - N/A   Scattered Clouds
3:55 PM 68.0 °F 59.0 °F 73% 30.15 in 6.2 mi East 12.7 mph - N/A   Scattered Clouds
4:00 PM 68 °F 59 °F 65% 30.16 in 6 mi East 12.7 mph - -   Scattered Clouds
4:55 PM 68.0 °F 64.4 °F 88% 30.12 in 6.2 mi East 8.1 mph - N/A   Scattered Clouds
5:55 PM 66.2 °F 64.4 °F 94% 30.15 in 6.2 mi ENE 6.9 mph - N/A   Scattered Clouds
6:55 PM 64.4 °F 64.4 °F 100% 30.15 in 6.2 mi ENE 5.8 mph - N/A   Scattered Clouds
7:00 PM 65 °F 64 °F 96% 30.17 in 6 mi ENE 5.8 mph - -   Partly Cloudy
7:55 PM 62.6 °F 62.6 °F 100% 30.18 in 6.2 mi East 9.2 mph - N/A   Scattered Clouds
8:55 PM 64.4 °F 64.4 °F 100% 30.18 in 6.2 mi East 9.2 mph - N/A   Scattered Clouds
9:55 PM 62.6 °F 62.6 °F 100% 30.15 in 6.2 mi East 5.8 mph - N/A   Scattered Clouds
10:00 PM 63 °F 63 °F 100% 30.18 in 6 mi East 5.8 mph - -   Partly Cloudy
10:55 PM 62.6 °F 62.6 °F 100% 30.15 in 6.2 mi NE 3.5 mph - N/A   Scattered Clouds
11:55 PM 60.8 °F 60.8 °F 100% 30.15 in 6.2 mi NE 3.5 mph - N/A   Scattered Clouds